SHT22G EGLL-EGJB

Flight info

Callsign SHT22G
Flight time 0h 31m
Altitude 20000
Route GASGU2J GASGU N866 SAM N63 LELNA LELNA1V
Aircraft A319/M-SDE2E3FGHIRWXY/S

Departure

Time 2026-04-23 17:08
Airport London Heathrow Airport (EGLL)

Arrival

Time 2026-04-23 17:39
Airport Guernsey Airport (EGJB)
Time Latitude Longitude Altitude Speed Heading
2026-04-23 16:35 51.46932 -0.48647 86 ft 0 kts 360°
2026-04-23 17:01 51.46918 -0.48647 105 ft 3 kts 360°
2026-04-23 17:02 51.46898 -0.48647 74 ft 3 kts 360°
2026-04-23 17:02 51.46882 -0.48649 88 ft 3 kts 48°
2026-04-23 17:02 51.46877 -0.48670 89 ft 2 kts 89°
2026-04-23 17:02 51.46877 -0.48689 87 ft 2 kts 90°
2026-04-23 17:03 51.46877 -0.48700 89 ft 0 kts 90°
2026-04-23 17:04 51.46877 -0.48677 87 ft 5 kts 90°
2026-04-23 17:05 51.46877 -0.48574 86 ft 12 kts 90°
2026-04-23 17:05 51.46851 -0.48467 88 ft 9 kts 175°
2026-04-23 17:05 51.46828 -0.48468 86 ft 0 kts 181°
2026-04-23 17:06 51.46827 -0.48468 86 ft 1 kts 181°
2026-04-23 17:06 51.46808 -0.48469 86 ft 7 kts 181°
2026-04-23 17:06 51.46730 -0.48469 86 ft 13 kts 179°
2026-04-23 17:07 51.46632 -0.48468 86 ft 11 kts 179°
2026-04-23 17:07 51.46566 -0.48467 87 ft 10 kts 179°
2026-04-23 17:07 51.46488 -0.48446 87 ft 13 kts 138°
2026-04-23 17:07 51.46478 -0.48264 89 ft 29 kts 90°
2026-04-23 17:08 51.46481 -0.47517 86 ft 104 kts 89°
2026-04-23 17:08 51.46482 -0.46097 387 ft 133 kts 89°
2026-04-23 17:08 51.46500 -0.44626 1123 ft 132 kts 88°
2026-04-23 17:08 51.46533 -0.43069 1533 ft 150 kts 88°
2026-04-23 17:09 51.46378 -0.41300 1808 ft 177 kts 112°
2026-04-23 17:09 51.45641 -0.39513 2227 ft 205 kts 122°
2026-04-23 17:09 51.44770 -0.37541 2773 ft 229 kts 122°
2026-04-23 17:09 51.43811 -0.35396 3602 ft 242 kts 126°
2026-04-23 17:10 51.42509 -0.33624 4576 ft 253 kts 149°
2026-04-23 17:10 51.40796 -0.32790 5533 ft 265 kts 172°
2026-04-23 17:10 51.38942 -0.33178 6480 ft 277 kts 196°
2026-04-23 17:10 51.37287 -0.34851 7381 ft 288 kts 219°
2026-04-23 17:11 51.35797 -0.37029 8298 ft 292 kts 220°
2026-04-23 17:11 51.34285 -0.39242 9209 ft 297 kts 220°
2026-04-23 17:11 51.32747 -0.41488 10105 ft 302 kts 220°
2026-04-23 17:11 51.31232 -0.43858 10904 ft 309 kts 229°
2026-04-23 17:12 51.30137 -0.46845 11679 ft 316 kts 248°
2026-04-23 17:12 51.29465 -0.50297 12097 ft 337 kts 253°
2026-04-23 17:12 51.28794 -0.54014 12377 ft 358 kts 253°
2026-04-23 17:12 51.28098 -0.57907 12964 ft 368 kts 253°
2026-04-23 17:13 51.27370 -0.61855 13687 ft 373 kts 253°
2026-04-23 17:13 51.26607 -0.65839 14380 ft 378 kts 252°
2026-04-23 17:13 51.25822 -0.69857 15057 ft 380 kts 252°
2026-04-23 17:13 51.25024 -0.73896 15770 ft 383 kts 251°
2026-04-23 17:14 51.24220 -0.77952 16469 ft 385 kts 251°
2026-04-23 17:14 51.23408 -0.82040 17159 ft 388 kts 251°
2026-04-23 17:14 51.22592 -0.86151 17851 ft 390 kts 251°
2026-04-23 17:14 51.21774 -0.90286 18575 ft 392 kts 250°
2026-04-23 17:15 51.20719 -0.94295 19159 ft 393 kts 239°
2026-04-23 17:15 51.19219 -0.97950 19700 ft 396 kts 229°
2026-04-23 17:15 51.17331 -1.01146 20195 ft 398 kts 222°
2026-04-23 17:15 51.15337 -1.04207 20346 ft 398 kts 221°
2026-04-23 17:16 51.13338 -1.07275 20384 ft 400 kts 221°
2026-04-23 17:16 51.11341 -1.10340 20380 ft 399 kts 222°
2026-04-23 17:16 51.09343 -1.13405 20375 ft 399 kts 222°
2026-04-23 17:16 51.07344 -1.16461 20354 ft 399 kts 221°
2026-04-23 17:17 51.05342 -1.19522 20353 ft 399 kts 222°
2026-04-23 17:17 51.03344 -1.22575 20355 ft 399 kts 222°
2026-04-23 17:17 51.02022 -1.24596 20355 ft 399 kts 221°
2026-04-23 17:17 50.99343 -1.28685 20353 ft 399 kts 222°
2026-04-23 17:18 50.95211 -1.34511 20348 ft 396 kts 211°
2026-04-23 17:18 50.92833 -1.36668 20343 ft 393 kts 204°
2026-04-23 17:18 50.90384 -1.38613 20343 ft 393 kts 204°
2026-04-23 17:19 50.87971 -1.40535 20347 ft 393 kts 204°
2026-04-23 17:19 50.85520 -1.42488 20348 ft 397 kts 205°
2026-04-23 17:19 50.83042 -1.44459 20355 ft 400 kts 205°
2026-04-23 17:19 50.80556 -1.46439 20350 ft 401 kts 205°
2026-04-23 17:20 50.78065 -1.48426 20350 ft 401 kts 205°
2026-04-23 17:20 50.73085 -1.52384 20334 ft 400 kts 205°
2026-04-23 17:21 50.68080 -1.56343 20330 ft 401 kts 204°
2026-04-23 17:21 50.65587 -1.58310 20327 ft 400 kts 205°
2026-04-23 17:21 50.60592 -1.62247 20331 ft 404 kts 205°
2026-04-23 17:22 50.58117 -1.64193 20329 ft 403 kts 205°
2026-04-23 17:22 50.53101 -1.68136 20324 ft 404 kts 205°
2026-04-23 17:23 50.48085 -1.72077 20321 ft 402 kts 205°
2026-04-23 17:23 50.45576 -1.74044 20321 ft 404 kts 205°
2026-04-23 17:23 50.40545 -1.77971 20332 ft 404 kts 205°
2026-04-23 17:24 50.38022 -1.79932 20320 ft 406 kts 205°
2026-04-23 17:24 50.35481 -1.81904 20321 ft 407 kts 205°
2026-04-23 17:24 50.30418 -1.85841 20313 ft 408 kts 206°
2026-04-23 17:25 50.25311 -1.89810 20315 ft 410 kts 206°
2026-04-23 17:25 50.22762 -1.91787 20310 ft 410 kts 206°
2026-04-23 17:26 50.17655 -1.95742 20158 ft 405 kts 206°
2026-04-23 17:26 50.12689 -1.99564 19611 ft 392 kts 205°
2026-04-23 17:27 50.07822 -2.03300 18571 ft 388 kts 205°
2026-04-23 17:27 50.05406 -2.05153 18000 ft 385 kts 204°
2026-04-23 17:27 50.03014 -2.06988 17486 ft 381 kts 204°
2026-04-23 17:27 50.00650 -2.08804 16968 ft 377 kts 204°
2026-04-23 17:28 49.98421 -2.10931 16458 ft 376 kts 214°
2026-04-23 17:28 49.96507 -2.13684 15955 ft 375 kts 226°
2026-04-23 17:28 49.94793 -2.16708 15471 ft 372 kts 227°
2026-04-23 17:28 49.93088 -2.19700 14970 ft 368 kts 227°
2026-04-23 17:29 49.91395 -2.22661 14468 ft 365 kts 226°
2026-04-23 17:29 49.89708 -2.25600 13967 ft 363 kts 225°
2026-04-23 17:29 49.86405 -2.31356 12968 ft 356 kts 225°
2026-04-23 17:30 49.85296 -2.33286 12644 ft 354 kts 225°
2026-04-23 17:30 49.81521 -2.39827 11533 ft 347 kts 225°
2026-04-23 17:30 49.79915 -2.42604 11057 ft 345 kts 226°
2026-04-23 17:31 49.78325 -2.45361 10646 ft 341 kts 224°
2026-04-23 17:31 49.76778 -2.48049 10524 ft 328 kts 224°
2026-04-23 17:31 49.75286 -2.50633 10395 ft 316 kts 224°
2026-04-23 17:31 49.73836 -2.53139 10252 ft 310 kts 224°
2026-04-23 17:32 49.72392 -2.55626 9839 ft 315 kts 223°
2026-04-23 17:32 49.70921 -2.58142 9529 ft 311 kts 223°
2026-04-23 17:32 49.69302 -2.60262 9212 ft 301 kts 210°
2026-04-23 17:32 49.67564 -2.62044 8823 ft 299 kts 209°
2026-04-23 17:33 49.65836 -2.63817 8456 ft 297 kts 209°
2026-04-23 17:33 49.64119 -2.65579 8087 ft 296 kts 209°
2026-04-23 17:33 49.62412 -2.67329 7743 ft 293 kts 209°
2026-04-23 17:33 49.60739 -2.69042 7390 ft 292 kts 209°
2026-04-23 17:34 49.59054 -2.70768 7051 ft 290 kts 208°
2026-04-23 17:34 49.57360 -2.72505 6711 ft 288 kts 208°
2026-04-23 17:34 49.54067 -2.75874 5927 ft 286 kts 209°
2026-04-23 17:35 49.52370 -2.77599 5143 ft 297 kts 209°
2026-04-23 17:35 49.48869 -2.81130 3820 ft 296 kts 205°
2026-04-23 17:35 49.47006 -2.82143 3519 ft 273 kts 183°
2026-04-23 17:36 49.45187 -2.82253 3220 ft 257 kts 174°
2026-04-23 17:36 49.43551 -2.81574 2912 ft 238 kts 142°
2026-04-23 17:36 49.42637 -2.79619 2628 ft 225 kts 104°
2026-04-23 17:36 49.42769 -2.77283 2357 ft 221 kts 76°
2026-04-23 17:37 49.43106 -2.75128 2084 ft 192 kts 90°
2026-04-23 17:37 49.43150 -2.73202 1855 ft 169 kts 90°
2026-04-23 17:37 49.43223 -2.70082 1465 ft 128 kts 90°
2026-04-23 17:38 49.43258 -2.68755 1293 ft 122 kts 89°
2026-04-23 17:38 49.43292 -2.67465 1117 ft 121 kts 86°
2026-04-23 17:38 49.43329 -2.66166 957 ft 123 kts 85°
2026-04-23 17:38 49.43365 -2.64866 796 ft 120 kts 85°
2026-04-23 17:39 49.43401 -2.63597 660 ft 118 kts 85°
2026-04-23 17:39 49.43440 -2.62303 478 ft 121 kts 85°
2026-04-23 17:39 49.43475 -2.61031 323 ft 116 kts 86°
2026-04-23 17:39 49.43499 -2.60104 315 ft 49 kts 87°
2026-04-23 17:40 49.43497 -2.59882 322 ft 12 kts 122°
2026-04-23 17:40 49.43409 -2.59860 325 ft 13 kts 177°
2026-04-23 17:40 49.43346 -2.59821 326 ft 6 kts 105°
2026-04-23 17:40 49.43349 -2.59769 328 ft 5 kts 77°
2026-04-23 17:41 49.43355 -2.59698 329 ft 5 kts 110°
2026-04-23 17:41 49.43268 -2.59685 328 ft 3 kts 178°
2026-04-23 17:41 49.43255 -2.59684 328 ft 0 kts 178°